SILO RECORD LiDAR
| Silo ID | Silo Type | Reliability | Strength | Temperature | Humidity | Depth | Height | Volume | Weight | Flag | Internal IP | Time | VMS DATA | 3D 좌표계 |
|---|---|---|---|---|---|---|---|---|---|---|---|---|---|---|
| DJHNR09 | 1 | 33 % | 1702 | 29.5 °C | 74 % | 981 mm | 6698 mm | 953.133 ㎥ | 602.571 t | 0 | 2023-09-05 01:05:57.000 | |||
| DJHNR10 | 1 | 104 % | 2102 | 27.2 °C | 78 % | 6727 mm | 952 mm | 135.524 ㎥ | 85.6781 t | 0 | 2023-09-05 00:07:22.000 | |||
| DJHNR06 | 1 | 70 % | 1974 | 26.4 °C | 88.9 % | 6637 mm | 1042 mm | 148.337 ㎥ | 93.7785 t | 0 | 2023-09-05 00:06:42.000 | |||
| DJHNR07 | 1 | 38 % | 2712 | 27.1 °C | 84.5 % | 882 mm | 6797 mm | 967.191 ㎥ | 611.458 t | 0 | 2023-09-05 00:06:03.000 | |||
| DJHNR09 | 1 | 33 % | 1680 | 29.7 °C | 73.8 % | 983 mm | 6696 mm | 952.904 ㎥ | 602.426 t | 0 | 2023-09-05 00:05:57.000 | |||
| DJHNR10 | 1 | 104 % | 2038 | 27.5 °C | 77.4 % | 6613 mm | 1066 mm | 151.804 ㎥ | 95.9706 t | 0 | 2023-09-04 23:07:22.000 | |||
| DJHNR06 | 1 | 70 % | 2036 | 26.7 °C | 88.8 % | 6643 mm | 1036 mm | 147.465 ㎥ | 93.2272 t | 0 | 2023-09-04 23:06:41.000 | |||
| DJHNR07 | 1 | 38 % | 2934 | 27.3 °C | 83.5 % | 900 mm | 6779 mm | 964.608 ㎥ | 609.825 t | 0 | 2023-09-04 23:06:03.000 | |||
| DJHNR09 | 1 | 33 % | 1641 | 29.8 °C | 73.7 % | 976 mm | 6703 mm | 953.917 ㎥ | 603.066 t | 0 | 2023-09-04 23:05:57.000 | |||
| DJHNR10 | 1 | 104 % | 2017 | 27.8 °C | 76.6 % | 6704 mm | 975 mm | 138.839 ㎥ | 87.7742 t | 0 | 2023-09-04 22:07:22.000 | |||
| DJHNR06 | 1 | 70 % | 1966 | 27 °C | 88.4 % | 6634 mm | 1045 mm | 148.719 ㎥ | 94.02 t | 0 | 2023-09-04 22:06:41.000 | |||
| DJHNR07 | 1 | 38 % | 2909 | 27.7 °C | 81.6 % | 1091 mm | 6588 mm | 937.432 ㎥ | 592.644 t | 0 | 2023-09-04 22:06:03.000 | |||
| DJHNR09 | 1 | 33 % | 1589 | 30 °C | 73.5 % | 976 mm | 6703 mm | 953.923 ㎥ | 603.07 t | 0 | 2023-09-04 22:05:57.000 | |||
| DJHNR10 | 1 | 104 % | 1989 | 28.2 °C | 75.7 % | 6606 mm | 1073 mm | 152.745 ㎥ | 96.5651 t | 0 | 2023-09-04 21:07:22.000 | |||
| DJHNR06 | 1 | 70 % | 1841 | 27.4 °C | 87.9 % | 6659 mm | 1020 mm | 145.242 ㎥ | 91.8223 t | 0 | 2023-09-04 21:06:41.000 | |||
| DJHNR07 | 1 | 38 % | 2909 | 28.1 °C | 80.6 % | 1359 mm | 6320 mm | 899.426 ㎥ | 568.617 t | 0 | 2023-09-04 21:06:03.000 | |||
| DJHNR09 | 1 | 33 % | 1508 | 30.3 °C | 73.2 % | 971 mm | 6708 mm | 954.543 ㎥ | 603.462 t | 0 | 2023-09-04 21:05:57.000 | |||
| DJHNR10 | 1 | 104 % | 2238 | 28.6 °C | 74.4 % | 6605 mm | 1074 mm | 152.864 ㎥ | 96.6405 t | 0 | 2023-09-04 20:07:23.000 | |||
| DJHNR06 | 1 | 70 % | 2142 | 27.7 °C | 87.3 % | 6632 mm | 1047 mm | 148.984 ㎥ | 94.1874 t | 0 | 2023-09-04 20:06:42.000 | |||
| DJHNR07 | 1 | 38 % | 2845 | 28.4 °C | 80.2 % | 1353 mm | 6326 mm | 900.249 ㎥ | 569.137 t | 0 | 2023-09-04 20:06:03.000 |
[첫 페이지] [43983] [43984] [43985] [43986] 43987 [43988] [43989] [마지막 페이지]